sat.trackr.live / text

‹ back to catalog

STARLINK-35182

NORAD 65504 · 2025-198N

PAYLOAD ACTIVE UNKNOWN

§ Identity

Operator
Country
US
Launch date
2025-09-05
Launch site
AFETR
Launch vehicle
Mass (kg)
RCS (m²)

Purposes: comms

External: N2YO · Heavens-Above · Gunter

§ Orbital elements

Epoch: 2026-05-25T01:46:08.836032Z

Period
93.85 min
Inclination
53.1603°
Eccentricity
0.0001159
Mean motion
15.34397382 rev/d
Perigee alt
461.9 km
Apogee alt
463.5 km
Semi-major
6,840.8 km
B*
5.8246e-4
RAAN
275.5729°
Arg perigee
87.0135°
Mean anomaly
273.1000°
Rev number
4,032

§ Raw data

STARLINK-351821 65504U 25198N   26145.07371338  .00019352  00000+0  58246-3 0  99922 65504  53.1603 275.5729 0001159  87.0135 273.1000 15.34397382 40324

JSON: /api/v1/satellites/65504 · /tle

For live sub-satellite position, see the globe view (requires WebGL).

§ Visibility from observer

Set your observer location to see the next 7 days of passes ≥ 10°. The values pass through the URL so the page stays shareable.

No JS? Fill the form by hand. The geolocation button needs JavaScript.